Location: Rowland
(34.5359°N, 79.2929°W)
Time: 18:38:21
(UTC+00:00)

Transit 2A Rocket - Pass Details

Date: 06 October 2022
Orbit: 589 x 911 km, 66.7° (Epoch: 02 December)

Event Time Altitude Azimuth Distance (km) Brightness Sun altitude
Rises 20:23:04 0° 316° (NW) 3,112 8.3 28.7°
Reaches altitude 10° 20:25:46 10° 302° (WNW) 2,246 7.9 28.2°
Maximum altitude 20:29:43 23° 251° (WSW) 1,618 9.1 27.5°
Drops below altitude 10° 20:33:56 10° 201° (SSW) 2,403 8.4 26.7°
Sets 20:36:56 0° 188° (S) 3,386 8.8 26.2°
